Universal City, TX

4:09 AM CST on February 12, 2016 (GMT -0600)
Randolph Air Force Base

Weather History for KRND - July, 2013

Change the Weather History Date:

Sunday, July 21, 2013

  Actual Average Record
Temperature  
Mean Temperature 84 °F -  
Max Temperature 93 °F 93 °F 102 °F (1998)
Min Temperature 75 °F 72 °F 69 °F (2004)
Cooling Degree Days 19    
Growing Degree Days 34 (Base 50)    
Moisture  
Dew Point 73 °F    
Average Humidity 79    
Maximum Humidity 94    
Minimum Humidity 49    
Precipitation  
Precipitation 0.00 in - - ()
Sea Level Pressure  
Sea Level Pressure 29.94 in    
Wind  
Wind Speed 7 mph (South)    
Max Wind Speed 18 mph    
Max Gust Speed 24 mph    
Visibility 10 miles    
Events      
Averages and records for this station are not official NWS values.
T = Trace of Precipitation, MM = Missing Value Source: NWS Daily Summary

Daily Weather History Graph

Daily Weather History Graph

Search for Another Location

Airport or City:

Trip Planner

Search our weather history database for the weather conditions in past years. The results will help you decide how hot, cold, wet, or windy it might be!

Date:

Astronomy

Jul. 21, 2013 Rise Set
Actual Time 6:46 AM CDT 8:32 PM CDT
Civil Twilight 6:20 AM CDT 8:58 PM CDT
Nautical Twilight 5:48 AM CDT 9:30 PM CDT
Astronomical Twilight 5:15 AM CDT 10:03 PM CDT
Moon 7:34 PM CDT (7/21) 5:32 AM CDT (7/21)
Length of Visible Light 14h 38m
Length of Day
13h 45m
Waxing Gibbous, 98% of the Moon is Illuminated
Jul 21
Waxing Gibbous
Jul 22
Full
Jul 29
Last Quarter
Aug 6
New
Aug 14
First Quarter

Hourly Weather History & Observations

Time (CDT) Temp. Heat Index Dew Point Humidity Pressure Visibility Wind Dir Wind Speed Gust Speed Precip Events Conditions
12:58 AM 77.4 °F - 72.0 °F 83% 29.93 in 10.0 mi South 6.9 mph - N/A   Clear
1:18 AM 75.2 °F - 71.6 °F 89% 29.96 in 10.0 mi South 4.6 mph - N/A   Mostly Cloudy
1:58 AM 77.7 °F - 72.7 °F 84% 29.94 in 10.0 mi South 8.1 mph - N/A   Mostly Cloudy
2:03 AM 77.0 °F - 73.4 °F 89% 29.96 in 10.0 mi South 8.1 mph - N/A   Scattered Clouds
2:23 AM 77.0 °F - 73.4 °F 89% 29.96 in 10.0 mi South 6.9 mph - N/A   Mostly Cloudy
2:33 AM 77.0 °F - 73.4 °F 89% 29.96 in 10.0 mi South 6.9 mph - N/A   Scattered Clouds
2:38 AM 77.0 °F - 73.4 °F 89% 29.96 in 10.0 mi South 6.9 mph - N/A   Mostly Cloudy
2:53 AM 77.0 °F - 73.4 °F 89% 29.95 in 10.0 mi South 8.1 mph - N/A   Mostly Cloudy
2:58 AM 77.0 °F - 73.4 °F 89% 29.93 in 10.0 mi South 8.1 mph - N/A   Mostly Cloudy
3:19 AM 75.2 °F - 73.4 °F 94% 29.94 in 10.0 mi SSE 5.8 mph - N/A   Partly Cloudy
3:55 AM 77.0 °F - 73.4 °F 89% 29.93 in 10.0 mi South 4.6 mph - N/A   Overcast
4:07 AM 77.0 °F - 73.4 °F 89% 29.93 in 10.0 mi South 4.6 mph - N/A   Overcast
4:22 AM 77.0 °F - 73.4 °F 89% 29.94 in 10.0 mi South 4.6 mph - N/A   Overcast
4:42 AM 77.0 °F - 73.4 °F 89% 29.94 in 10.0 mi South 4.6 mph - N/A   Mostly Cloudy
4:52 AM 77.0 °F - 73.4 °F 89% 29.93 in 10.0 mi South 4.6 mph - N/A   Mostly Cloudy
4:58 AM 76.5 °F - 73.6 °F 91% 29.91 in 10.0 mi South 4.6 mph - N/A   Mostly Cloudy
5:03 AM 77.0 °F - 73.4 °F 89% 29.93 in 10.0 mi South 4.6 mph - N/A   Scattered Clouds
5:43 AM 75.2 °F - 73.4 °F 94% 29.93 in 10.0 mi South 4.6 mph - N/A   Mostly Cloudy
5:53 AM 75.2 °F - 73.4 °F 94% 29.93 in 10.0 mi South 4.6 mph - N/A   Scattered Clouds
5:58 AM 75.9 °F - 73.6 °F 92% 29.91 in 10.0 mi South 4.6 mph - N/A   Scattered Clouds
6:58 AM 75.6 °F - 73.8 °F 94% 29.91 in 10.0 mi SSW 4.6 mph - N/A   Clear
7:58 AM 76.5 °F - 74.7 °F 94% 29.94 in 10.0 mi SSE 4.6 mph - N/A   Scattered Clouds
8:03 AM 77.0 °F - 75.2 °F 94% 29.96 in 10.0 mi South 4.6 mph - N/A   Mostly Cloudy
8:08 AM 77.0 °F - 75.2 °F 94% 29.96 in 10.0 mi South 5.8 mph - N/A   Mostly Cloudy
8:43 AM 78.8 °F - 75.2 °F 89% 29.98 in 10.0 mi South 4.6 mph - N/A   Mostly Cloudy
8:48 AM 78.8 °F - 73.4 °F 83% 29.98 in 10.0 mi SSW 3.5 mph - N/A   Mostly Cloudy
8:58 AM 78.6 °F - 72.5 °F 81% 29.96 in 10.0 mi SW 4.6 mph - N/A   Scattered Clouds
9:13 AM 80.6 °F 85.4 °F 73.4 °F 79% 29.98 in 10.0 mi SSW 5.8 mph - N/A   Mostly Cloudy
9:18 AM 80.6 °F 85.4 °F 73.4 °F 79% 29.98 in 10.0 mi SSW 3.5 mph - N/A   Mostly Cloudy
9:33 AM 80.6 °F 85.4 °F 73.4 °F 79% 29.98 in 10.0 mi South 2.3 mph - N/A   Scattered Clouds
9:58 AM 82.2 °F 88.3 °F 73.9 °F 76% 29.95 in 10.0 mi SSW 5.8 mph - N/A   Scattered Clouds
10:38 AM 84.2 °F 90.9 °F 73.4 °F 70% 29.97 in 10.0 mi South 6.9 mph - N/A   Mostly Cloudy
10:48 AM 84.2 °F 90.9 °F 73.4 °F 70% 29.97 in 10.0 mi SSW 5.8 mph - N/A   Mostly Cloudy
10:58 AM 85.5 °F 93.4 °F 74.3 °F 69% 29.95 in 10.0 mi SSW 5.8 mph - N/A   Mostly Cloudy
11:03 AM 86.0 °F 93.4 °F 73.4 °F 66% 29.97 in 10.0 mi SSW 8.1 mph - N/A   Scattered Clouds
11:58 AM 88.0 °F 94.7 °F 72.0 °F 59% 29.94 in 10.0 mi South 9.2 mph - N/A   Scattered Clouds
12:33 PM 89.6 °F 98.2 °F 73.4 °F 59% 29.96 in 10.0 mi SSW 10.4 mph - N/A   Mostly Cloudy
12:38 PM 87.8 °F 95.6 °F 73.4 °F 62% 29.96 in 10.0 mi SSW 10.4 mph - N/A   Overcast
12:58 PM 89.6 °F 97.2 °F 72.5 °F 57% 29.93 in 10.0 mi SSW 11.5 mph - N/A   Mostly Cloudy
1:58 PM 90.5 °F 98.6 °F 72.7 °F 56% 29.91 in 10.0 mi South 6.9 mph - N/A   Scattered Clouds
2:58 PM 90.7 °F 98.5 °F 72.3 °F 55% 29.92 in 10.0 mi South 11.5 mph - N/A   Mostly Cloudy
3:58 PM 91.2 °F 97.5 °F 70.5 °F 51% 29.88 in 10.0 mi South 11.5 mph - N/A   Mostly Cloudy
4:58 PM 93.2 °F 100.5 °F 71.4 °F 49% 29.88 in 10.0 mi South 12.7 mph - N/A   Mostly Cloudy
5:58 PM 88.5 °F 98.3 °F 74.8 °F 64% 29.87 in 10.0 mi SE 18.4 mph 24.2 mph N/A   Mostly Cloudy
6:58 PM 86.2 °F 95.1 °F 75.0 °F 69% 29.87 in 10.0 mi SE 8.1 mph - N/A   Mostly Cloudy
7:58 PM 86.4 °F 93.4 °F 72.7 °F 64% 29.88 in 10.0 mi SE 15.0 mph - N/A   Partly Cloudy
8:58 PM 83.5 °F 89.4 °F 72.7 °F 70% 29.89 in 10.0 mi SSE 12.7 mph - N/A   Clear
9:58 PM 81.1 °F 85.8 °F 72.7 °F 75% 29.92 in 10.0 mi SSE 10.4 mph - N/A   Clear
10:58 PM 79.9 °F - 72.5 °F 78% 29.94 in 10.0 mi South 11.5 mph - N/A   Partly Cloudy
11:58 PM 78.8 °F - 73.4 °F 83% 29.96 in 10.0 mi SSE 10.4 mph - N/A   Partly Cloudy